Time,TemperatureF,DewpointF,PressureIn,WindDirection,WindDirectionDegrees,WindSpeedMPH,WindSpeedGustMPH,Humidity,HourlyPrecipIn,Conditions,Clouds,dailyrainin,SoftwareType,DateUTC
2013-11-30 00:22:00,22.0,16.0,30.71,NNE,27,11.0,16.0,79,0.00,,,0.00,,2013-11-30 05:22:00,
2013-11-30 00:43:00,21.0,16.0,30.72,NNE,17,11.0,14.0,79,0.00,,,0.00,,2013-11-30 05:43:00,
2013-11-30 00:53:00,21.0,16.0,30.72,NNE,27,11.0,15.0,79,0.00,,,0.00,,2013-11-30 05:53:00,
2013-11-30 01:12:00,21.0,16.0,30.72,NNE,21,14.0,17.0,79,0.00,,,0.00,,2013-11-30 06:12:00,
2013-11-30 01:22:00,21.0,16.0,30.72,NNE,12,11.0,17.0,79,0.00,,,0.00,,2013-11-30 06:22:00,
2013-11-30 01:42:00,21.0,16.0,30.72,NNE,24,13.0,17.0,79,0.00,,,0.00,,2013-11-30 06:42:00,
2013-11-30 01:52:00,21.0,16.0,30.73,NNE,33,12.0,17.0,79,0.00,,,0.00,,2013-11-30 06:52:00,
2013-11-30 02:12:00,21.0,15.0,30.73,NNE,33,13.0,19.0,78,0.00,,,0.00,,2013-11-30 07:12:00,
2013-11-30 02:22:00,21.0,15.0,30.73,NE,41,14.0,19.0,77,0.00,,,0.00,,2013-11-30 07:22:00,
2013-11-30 02:42:00,21.0,15.0,30.73,NNE,31,12.0,17.0,78,0.00,,,0.00,,2013-11-30 07:42:00,
2013-11-30 02:52:00,21.0,15.0,30.73,NE,36,12.0,19.0,77,0.00,,,0.00,,2013-11-30 07:52:00,
2013-11-30 03:22:00,21.0,15.0,30.73,NNE,30,14.0,17.0,78,0.00,,,0.00,,2013-11-30 08:22:00,
2013-11-30 03:42:00,21.0,15.0,30.73,NE,50,7.0,16.0,78,0.00,,,0.00,,2013-11-30 08:42:00,
2013-11-30 03:52:00,21.0,16.0,30.74,NNE,24,9.0,16.0,79,0.00,,,0.00,,2013-11-30 08:52:00,
2013-11-30 04:11:00,21.0,16.0,30.74,NE,38,9.0,16.0,80,0.00,,,0.00,,2013-11-30 09:11:00,
2013-11-30 04:22:00,21.0,16.0,30.74,NE,37,11.0,17.0,79,0.00,,,0.00,,2013-11-30 09:22:00,
2013-11-30 04:43:00,21.0,16.0,30.75,NE,40,12.0,17.0,79,0.00,,,0.00,,2013-11-30 09:43:00,
2013-11-30 04:54:00,21.0,16.0,30.75,NNE,27,13.0,18.0,79,0.00,,,0.00,,2013-11-30 09:54:00,
2013-11-30 05:13:00,21.0,16.0,30.75,NE,44,4.0,15.0,79,0.00,,,0.00,,2013-11-30 10:13:00,
2013-11-30 05:23:00,21.0,16.0,30.75,NE,34,8.0,16.0,81,0.00,,,0.00,,2013-11-30 10:23:00,
2013-11-30 05:42:00,21.0,16.0,30.76,NNE,29,9.0,13.0,82,0.00,,,0.00,,2013-11-30 10:42:00,
2013-11-30 05:53:00,21.0,16.0,30.76,NE,36,10.0,14.0,81,0.00,,,0.00,,2013-11-30 10:53:00,
2013-11-30 06:12:00,21.0,16.0,30.76,NNE,31,7.0,15.0,81,0.00,,,0.00,,2013-11-30 11:12:00,
2013-11-30 06:22:00,20.0,15.0,30.77,NE,43,4.0,10.0,81,0.00,,,0.00,,2013-11-30 11:22:00,
2013-11-30 06:42:00,19.0,14.0,30.77,ENE,75,2.0,5.0,80,0.00,,,0.00,,2013-11-30 11:42:00,
2013-11-30 06:53:00,19.0,14.0,30.77,NE,45,4.0,8.0,80,0.00,,,0.00,,2013-11-30 11:53:00,
2013-11-30 07:11:00,20.0,15.0,30.77,East,79,1.0,7.0,80,0.00,,,0.00,,2013-11-30 12:11:00,
2013-11-30 07:22:00,20.0,15.0,30.78,ENE,67,2.0,7.0,81,0.00,,,0.00,,2013-11-30 12:22:00,
2013-11-30 07:42:00,20.0,16.0,30.78,NNE,33,3.0,9.0,84,0.00,,,0.00,,2013-11-30 12:42:00,
2013-11-30 07:52:00,21.0,17.0,30.78,NE,34,6.0,10.0,84,0.00,,,0.00,,2013-11-30 12:52:00,
2013-11-30 08:11:00,22.0,18.0,30.79,NNE,27,7.0,9.0,83,0.00,,,0.00,,2013-11-30 13:11:00,
2013-11-30 08:22:00,22.0,17.0,30.79,NNE,29,5.0,10.0,80,0.00,,,0.00,,2013-11-30 13:22:00,
2013-11-30 08:42:00,22.0,17.0,30.79,NNE,27,7.0,10.0,81,0.00,,,0.00,,2013-11-30 13:42:00,
2013-11-30 08:52:00,22.0,17.0,30.79,NNE,27,5.0,10.0,81,0.00,,,0.00,,2013-11-30 13:52:00,
2013-11-30 09:12:00,22.0,16.0,30.79,NNE,25,7.0,9.0,79,0.00,,,0.00,,2013-11-30 14:12:00,
2013-11-30 09:22:00,23.0,17.0,30.79,NNE,25,5.0,8.0,76,0.00,,,0.00,,2013-11-30 14:22:00,
2013-11-30 09:42:00,23.0,17.0,30.79,NNE,25,3.0,7.0,76,0.00,,,0.00,,2013-11-30 14:42:00,
2013-11-30 09:53:00,24.0,16.0,30.79,ENE,76,1.0,3.0,71,0.00,,,0.00,,2013-11-30 14:53:00,
2013-11-30 10:22:00,25.0,16.0,30.79,East,86,1.0,4.0,67,0.00,,,0.00,,2013-11-30 15:22:00,
2013-11-30 10:43:00,25.0,15.0,30.78,ENE,78,0.0,4.0,66,0.00,,,0.00,,2013-11-30 15:43:00,
2013-11-30 10:54:00,25.0,12.0,30.77,East,92,0.0,3.0,57,0.00,,,0.00,,2013-11-30 15:54:00,
2013-11-30 11:13:00,26.0,14.0,30.76,ESE,108,0.0,3.0,59,0.00,,,0.00,,2013-11-30 16:13:00,
2013-11-30 11:23:00,27.0,14.0,30.75,NNW,342,1.0,4.0,57,0.00,,,0.00,,2013-11-30 16:23:00,
2013-11-30 11:43:00,27.0,14.0,30.74,ENE,63,0.0,2.0,57,0.00,,,0.00,,2013-11-30 16:43:00,
2013-11-30 11:53:00,27.0,13.0,30.73,West,269,1.0,3.0,54,0.00,,,0.00,,2013-11-30 16:53:00,
2013-11-30 12:11:00,28.0,13.0,30.73,ESE,110,0.0,2.0,53,0.00,,,0.00,,2013-11-30 17:11:00,
2013-11-30 12:22:00,28.0,14.0,30.73,NE,53,1.0,2.0,56,0.00,,,0.00,,2013-11-30 17:22:00,
2013-11-30 12:42:00,29.0,14.0,30.72,West,270,0.0,2.0,54,0.00,,,0.00,,2013-11-30 17:42:00,
2013-11-30 12:53:00,29.0,14.0,30.71,West,275,1.0,3.0,52,0.00,,,0.00,,2013-11-30 17:53:00,
2013-11-30 13:12:00,29.0,14.0,30.70,West,266,1.0,3.0,52,0.00,,,0.00,,2013-11-30 18:12:00,
2013-11-30 13:22:00,29.0,15.0,30.70,NE,53,0.0,2.0,55,0.00,,,0.00,,2013-11-30 18:22:00,
2013-11-30 13:42:00,29.0,14.0,30.70,West,269,0.0,2.0,54,0.00,,,0.00,,2013-11-30 18:42:00,
2013-11-30 13:52:00,28.0,15.0,30.69,ESE,115,0.0,2.0,57,0.00,,,0.00,,2013-11-30 18:52:00,
2013-11-30 14:11:00,27.0,15.0,30.68,SW,231,0.0,5.0,60,0.00,,,0.00,,2013-11-30 19:11:00,
2013-11-30 14:21:00,27.0,15.0,30.68,SW,231,0.0,5.0,60,0.00,,,0.00,,2013-11-30 19:21:00,
2013-11-30 14:42:00,30.0,17.0,30.67,West,271,3.0,9.0,57,0.00,,,0.00,,2013-11-30 19:42:00,
2013-11-30 14:52:00,30.0,17.0,30.67,West,271,3.0,9.0,57,0.00,,,0.00,,2013-11-30 19:52:00,
2013-11-30 15:11:00,30.0,17.0,30.66,WNW,282,1.0,7.0,58,0.00,,,0.00,,2013-11-30 20:11:00,
2013-11-30 15:22:00,29.0,16.0,30.66,West,268,2.0,6.0,58,0.00,,,0.00,,2013-11-30 20:22:00,
2013-11-30 15:42:00,28.0,16.0,30.66,WSW,249,0.0,2.0,61,0.00,,,0.00,,2013-11-30 20:42:00,
2013-11-30 15:52:00,28.0,16.0,30.66,WSW,253,0.0,6.0,61,0.00,,,0.00,,2013-11-30 20:52:00,
2013-11-30 16:22:00,27.0,17.0,30.65,WSW,253,0.0,5.0,65,0.00,,,0.00,,2013-11-30 21:22:00,
2013-11-30 16:43:00,26.0,17.0,30.65,WSW,253,0.0,2.0,67,0.00,,,0.00,,2013-11-30 21:43:00,
2013-11-30 16:53:00,25.0,16.0,30.64,WSW,253,0.0,2.0,69,0.00,,,0.00,,2013-11-30 21:53:00,
2013-11-30 17:13:00,25.0,17.0,30.64,WSW,253,0.0,4.0,72,0.00,,,0.00,,2013-11-30 22:13:00,
2013-11-30 17:23:00,25.0,18.0,30.64,WSW,253,0.0,4.0,73,0.00,,,0.00,,2013-11-30 22:23:00,
2013-11-30 17:42:00,25.0,18.0,30.63,WSW,253,0.0,1.0,74,0.00,,,0.00,,2013-11-30 22:42:00,
2013-11-30 17:52:00,25.0,18.0,30.63,WSW,253,0.0,2.0,75,0.00,,,0.00,,2013-11-30 22:52:00,
2013-11-30 18:12:00,25.0,19.0,30.63,WSW,253,0.0,3.0,76,0.00,,,0.00,,2013-11-30 23:12:00,
2013-11-30 18:22:00,25.0,19.0,30.62,WSW,253,1.0,5.0,76,0.00,,,0.00,,2013-11-30 23:22:00,
2013-11-30 18:42:00,25.0,19.0,30.61,WSW,253,1.0,3.0,78,0.00,,,0.00,,2013-11-30 23:42:00,
2013-11-30 18:53:00,26.0,20.0,30.60,WSW,253,1.0,4.0,78,0.00,,,0.00,,2013-11-30 23:53:00,
2013-11-30 19:11:00,26.0,20.0,30.60,WSW,253,0.0,3.0,78,0.00,,,0.00,,2013-12-01 00:11:00,
2013-11-30 19:22:00,26.0,20.0,30.58,WSW,253,1.0,4.0,79,0.00,,,0.00,,2013-12-01 00:22:00,
2013-11-30 19:42:00,27.0,22.0,30.58,WSW,253,3.0,6.0,81,0.00,,,0.00,,2013-12-01 00:42:00,
2013-11-30 19:52:00,28.0,24.0,30.57,WSW,249,2.0,4.0,84,0.00,,,0.00,,2013-12-01 00:52:00,
2013-11-30 20:21:00,29.0,25.0,30.56,WSW,248,4.0,8.0,85,0.00,,,0.00,,2013-12-01 01:21:00,
2013-11-30 20:42:00,30.0,26.0,30.55,WSW,241,5.0,9.0,84,0.00,,,0.00,,2013-12-01 01:42:00,
2013-11-30 20:52:00,31.0,26.0,30.55,WSW,248,4.0,11.0,81,0.00,,,0.00,,2013-12-01 01:52:00,
2013-11-30 21:22:00,31.0,26.0,30.53,West,259,6.0,14.0,81,0.00,,,0.00,,2013-12-01 02:22:00,
2013-11-30 21:42:00,33.0,26.0,30.53,WSW,248,2.0,11.0,76,0.00,,,0.00,,2013-12-01 02:42:00,
2013-11-30 21:52:00,34.0,26.0,30.52,WSW,246,8.0,15.0,73,0.00,,,0.00,,2013-12-01 02:52:00,
2013-11-30 22:22:00,34.0,26.0,30.51,SW,235,8.0,16.0,73,0.00,,,0.00,,2013-12-01 03:22:00,
2013-11-30 22:44:00,35.0,27.0,30.50,WSW,242,10.0,18.0,72,0.00,,,0.00,,2013-12-01 03:44:00,
2013-11-30 22:53:00,35.0,26.0,30.50,SW,233,10.0,16.0,70,0.00,,,0.00,,2013-12-01 03:53:00,
2013-11-30 23:03:00,-999.0,-99.9,30.48,West,281,9.0,14.0,-999,0.00,,,0.00,,2013-12-01 04:03:00,
2013-11-30 23:13:00,35.0,26.0,30.48,West,281,9.0,14.0,69,0.00,,,0.00,,2013-12-01 04:13:00,
2013-11-30 23:23:00,35.0,25.0,30.47,WSW,240,8.0,16.0,67,0.00,,,0.00,,2013-12-01 04:23:00,
2013-11-30 23:42:00,35.0,27.0,30.46,SW,224,9.0,17.0,72,0.00,,,0.00,,2013-12-01 04:42:00,
2013-11-30 23:52:00,36.0,27.0,30.45,SW,231,9.0,17.0,69,0.00,,,0.00,,2013-12-01 04:52:00,